Location: Newark
(35.6799°N, 139.7636°E)
Time: 02:54:29
(UTC+00:00)

Transit 2A - Pass Details

Date: 13 December 2019
Orbit: 601 x 957 km, 66.7° (Epoch: 17 January)

Event Time Altitude Azimuth Distance (km) Brightness Sun altitude
Rises 20:07:03 0° 195° (SSW) 3,166 9.2 -18.7°
Reaches altitude 10° 20:09:32 10° 191° (SSW) 2,190 8.4 -18.2°
Maximum altitude 20:14:22 56° 114° (ESE) 794 6.4 -17.3°
Drops below altitude 10° 20:18:49 10° 36° (NE) 2,023 8.4 -16.4°
Sets 20:21:02 0° 32° (NNE) 2,903 9.2 -16.0°
